• In Lithuania
  • List of Countries
  • For 7 days
  • Water Temperature
  • Satellite Maps
  • Weather Map
  • Weather Widgets
  • user-avatar
    Login

    Hourly Weather Albany

    Today, 19 December, Tuesday

    Time Temperature Precipitation Wind Pressure Humidity
    00:00 +14°C° 0.3 mm 10 mps 751 mmHg 78%
    01:00 +14°C° 0.3 mm 10 mps 751 mmHg 77%
    02:00 +15°C° 0.3 mm 9 mps 752 mmHg 77%
    03:00 +15°C° 0.1 mm 9 mps 752 mmHg 77%
    04:00 +13°C° 0.1 mm 9 mps 753 mmHg 76%
    05:00 +13°C° 0.1 mm 8 mps 754 mmHg 75%
    06:00 +13°C° 0.1 mm 8 mps 754 mmHg 73%
    07:00 +15°C° 0.1 mm 8 mps 755 mmHg 71%
    08:00 +15°C° 0.1 mm 8 mps 756 mmHg 70%
    09:00 +15°C° 0.1 mm 7 mps 756 mmHg 69%
    10:00 +15°C° 0.1 mm 7 mps 757 mmHg 67%
    11:00 +16°C° 0.1 mm 7 mps 757 mmHg 66%
    12:00 +16°C° 0 mm 6 mps 758 mmHg 64%
    13:00 +17°C° 0 mm 6 mps 758 mmHg 62%
    14:00 +17°C° 0 mm 5 mps 758 mmHg 60%
    15:00 +17°C° 0 mm 5 mps 758 mmHg 60%
    16:00 +17°C° 0 mm 5 mps 759 mmHg 59%
    17:00 +19°C° 0 mm 5 mps 759 mmHg 58%
    18:00 +17°C° 0 mm 4 mps 759 mmHg 63%
    19:00 +15°C° 0 mm 4 mps 760 mmHg 68%
    20:00 +14°C° 0 mm 3 mps 760 mmHg 72%
    21:00 +14°C° 0 mm 3 mps 761 mmHg 75%
    22:00 +15°C° 0 mm 2 mps 761 mmHg 77%
    23:00 +14°C° 0 mm 2 mps 761 mmHg 79%

    Tomorrow, 20 December, Wednesday

    Time Temperature Precipitation Wind Pressure Humidity
    00:00 +14°C° 0 mm 1 mps 761 mmHg 81%
    01:00 +13°C° 0 mm 1 mps 761 mmHg 83%
    02:00 +13°C° 0 mm 1 mps 761 mmHg 85%
    03:00 +13°C° 0 mm 1 mps 761 mmHg 86%
    04:00 +12°C° 0 mm 1 mps 761 mmHg 87%
    05:00 +12°C° 0 mm 1 mps 761 mmHg 88%
    06:00 +14°C° 0 mm 1 mps 761 mmHg 79%
    07:00 +16°C° 0 mm 1 mps 762 mmHg 70%
    08:00 +19°C° 0 mm 1 mps 762 mmHg 61%
    09:00 +21°C° 0 mm 1 mps 762 mmHg 54%
    10:00 +23°C° 0 mm 1 mps 761 mmHg 47%
    11:00 +25°C° 0 mm 2 mps 761 mmHg 40%
    12:00 +26°C° 0 mm 2 mps 761 mmHg 41%
    13:00 +26°C° 0 mm 3 mps 760 mmHg 41%
    14:00 +26°C° 0 mm 3 mps 760 mmHg 42%
    15:00 +25°C° 0 mm 4 mps 760 mmHg 46%
    16:00 +23°C° 0 mm 4 mps 759 mmHg 51%
    17:00 +22°C° 0 mm 4 mps 759 mmHg 55%
    18:00 +21°C° 0 mm 4 mps 759 mmHg 61%
    19:00 +19°C° 0 mm 4 mps 760 mmHg 67%
    20:00 +18°C° 0 mm 3 mps 760 mmHg 73%
    21:00 +17°C° 0 mm 3 mps 760 mmHg 75%
    22:00 +17°C° 0 mm 3 mps 760 mmHg 77%
    23:00 +16°C° 0 mm 3 mps 760 mmHg 79%

    Day after tomorrow, 21 December, Thursday

    Time Temperature Precipitation Wind Pressure Humidity
    00:00 +16°C° 0 mm 3 mps 760 mmHg 81%
    01:00 +16°C° 0 mm 3 mps 759 mmHg 83%
    02:00 +16°C° 0 mm 3 mps 759 mmHg 85%
    03:00 +14°C° 0 mm 3 mps 759 mmHg 85%
    04:00 +14°C° 0 mm 3 mps 759 mmHg 85%
    05:00 +14°C° 0 mm 3 mps 758 mmHg 85%
    06:00 +18°C° 0 mm 4 mps 758 mmHg 75%
    07:00 +20°C° 0 mm 4 mps 758 mmHg 65%
    08:00 +22°C° 0 mm 4 mps 758 mmHg 54%
    09:00 +25°C° 0 mm 4 mps 758 mmHg 48%
    10:00 +27°C° 0 mm 4 mps 757 mmHg 42%
    11:00 +30°C° 0 mm 4 mps 757 mmHg 36%
    12:00 +30°C° 0 mm 5 mps 756 mmHg 37%
    13:00 +30°C° 0 mm 5 mps 756 mmHg 38%
    14:00 +30°C° 0 mm 5 mps 755 mmHg 40%
    15:00 +28°C° 0 mm 5 mps 755 mmHg 48%
    16:00 +27°C° 0 mm 5 mps 755 mmHg 56%
    17:00 +24°C° 0 mm 6 mps 754 mmHg 64%
    18:00 +22°C° 0 mm 5 mps 755 mmHg 71%
    19:00 +21°C° 0 mm 4 mps 755 mmHg 78%
    20:00 +19°C° 0 mm 4 mps 756 mmHg 85%
    21:00 +19°C° 0 mm 4 mps 756 mmHg 87%
    22:00 +18°C° 0 mm 4 mps 756 mmHg 89%
    23:00 +18°C° 0 mm 4 mps 756 mmHg 91%

    22 December, Friday

    Time Temperature Precipitation Wind Pressure Humidity
    00:00 +18°C° 0 mm 4 mps 755 mmHg 92%
    01:00 +18°C° 0 mm 4 mps 754 mmHg 92%
    02:00 +18°C° 0 mm 4 mps 754 mmHg 92%
    03:00 +18°C° 0 mm 4 mps 754 mmHg 91%
    04:00 +17°C° 0 mm 5 mps 754 mmHg 90%
    05:00 +17°C° 0 mm 5 mps 754 mmHg 89%
    06:00 +17°C° 0 mm 5 mps 754 mmHg 86%
    07:00 +19°C° 0 mm 5 mps 754 mmHg 84%
    08:00 +19°C° 0 mm 5 mps 755 mmHg 81%
    09:00 +19°C° 0 mm 5 mps 755 mmHg 79%
    10:00 +19°C° 0 mm 5 mps 755 mmHg 77%
    11:00 +19°C° 0 mm 5 mps 755 mmHg 76%
    12:00 +20°C° 0 mm 5 mps 754 mmHg 74%
    13:00 +20°C° 0 mm 6 mps 754 mmHg 73%
    14:00 +20°C° 0 mm 6 mps 754 mmHg 72%
    15:00 +20°C° 0 mm 6 mps 754 mmHg 72%
    16:00 +19°C° 0 mm 6 mps 754 mmHg 71%
    17:00 +19°C° 0 mm 6 mps 754 mmHg 71%
    18:00 +17°C° 0 mm 6 mps 755 mmHg 73%
    19:00 +17°C° 0 mm 5 mps 755 mmHg 74%
    20:00 +16°C° 0 mm 5 mps 756 mmHg 76%
    21:00 +16°C° 0 mm 5 mps 756 mmHg 76%
    22:00 +16°C° 0 mm 5 mps 756 mmHg 76%
    23:00 +16°C° 0 mm 5 mps 757 mmHg 77%

    23 December, Saturday

    Time Temperature Precipitation Wind Pressure Humidity
    00:00 +16°C° 0 mm 5 mps 757 mmHg 76%
    01:00 +16°C° 0 mm 5 mps 756 mmHg 76%
    02:00 +16°C° 0 mm 5 mps 756 mmHg 75%
    03:00 +16°C° 0.1 mm 5 mps 757 mmHg 76%
    04:00 +16°C° 0.1 mm 5 mps 757 mmHg 76%
    05:00 +17°C° 0.1 mm 4 mps 757 mmHg 77%
    06:00 +16°C° 0 mm 5 mps 758 mmHg 73%
    07:00 +17°C° 0 mm 5 mps 758 mmHg 70%
    08:00 +19°C° 0 mm 5 mps 758 mmHg 66%
    09:00 +17°C° 0 mm 5 mps 759 mmHg 68%
    10:00 +17°C° 0 mm 5 mps 759 mmHg 69%
    11:00 +17°C° 0 mm 5 mps 759 mmHg 70%
    12:00 +17°C° 0 mm 5 mps 759 mmHg 68%
    13:00 +19°C° 0 mm 5 mps 759 mmHg 66%
    14:00 +19°C° 0 mm 5 mps 759 mmHg 64%
    15:00 +19°C° 0 mm 5 mps 759 mmHg 65%
    16:00 +17°C° 0 mm 5 mps 759 mmHg 66%
    17:00 +17°C° 0 mm 5 mps 759 mmHg 67%
    18:00 +17°C° 0 mm 4 mps 760 mmHg 69%
    19:00 +15°C° 0 mm 4 mps 760 mmHg 71%
    20:00 +15°C° 0 mm 4 mps 760 mmHg 73%
    21:00 +14°C° 0 mm 3 mps 761 mmHg 76%
    22:00 +14°C° 0 mm 3 mps 761 mmHg 78%
    23:00 +13°C° 0 mm 3 mps 761 mmHg 81%

    24 December, Sunday

    Time Temperature Precipitation Wind Pressure Humidity
    00:00 +13°C° 0 mm 3 mps 761 mmHg 82%
    01:00 +13°C° 0 mm 3 mps 760 mmHg 82%
    02:00 +13°C° 0 mm 3 mps 760 mmHg 83%
    03:00 +13°C° 0 mm 3 mps 760 mmHg 83%
    04:00 +13°C° 0 mm 3 mps 760 mmHg 82%
    05:00 +13°C° 0 mm 3 mps 761 mmHg 82%
    06:00 +14°C° 0 mm 3 mps 761 mmHg 75%
    07:00 +17°C° 0 mm 4 mps 761 mmHg 69%
    08:00 +18°C° 0 mm 4 mps 761 mmHg 62%
    09:00 +20°C° 0 mm 4 mps 761 mmHg 58%
    10:00 +21°C° 0 mm 5 mps 761 mmHg 53%
    11:00 +22°C° 0 mm 5 mps 761 mmHg 49%
    12:00 +23°C° 0 mm 5 mps 760 mmHg 48%
    13:00 +23°C° 0 mm 5 mps 760 mmHg 48%
    14:00 +24°C° 0 mm 6 mps 759 mmHg 47%
    15:00 +23°C° 0 mm 6 mps 759 mmHg 50%
    16:00 +23°C° 0 mm 6 mps 759 mmHg 52%
    17:00 +22°C° 0 mm 6 mps 759 mmHg 55%
    18:00 +20°C° 0 mm 6 mps 759 mmHg 62%
    19:00 +19°C° 0 mm 6 mps 759 mmHg 68%
    20:00 +16°C° 0 mm 6 mps 760 mmHg 75%
    21:00 +16°C° 0 mm 6 mps 759 mmHg 77%
    22:00 +16°C° 0 mm 6 mps 759 mmHg 80%
    23:00 +15°C° 0 mm 6 mps 759 mmHg 83%
    Show more